610  
ASUS41 KBTV 191930  
RWRBTV  
VERMONT REGIONAL WEATHER ROUNDUP  
NATIONAL WEATHER SERVICE BURLINGTON VT  
300 PM EDT THU OCT 19 2017  
 
NOTE: "FAIR" INDICATES FEW OR NO CLOUDS BELOW 12,000 FEET WITH NO  
SIGNIFICANT WEATHER AND/OR S TO VISIBILITY
.  
 
* THESE REPORTS ARE NOT UNDER NWS QUALITY CONTROL AND/OR DO NOT  
REPORT WEATHER SUCH AS PRECIPITATION AND FOG.
 
 
VTZ001>019-192000-  
_____VERMONT_____  
 
 
CITY SKY/WX TMP DP RH WIND PRES REMARKS
 
BURLINGTON PTSUNNY 71 43 36 S21G31 29.88F  
MONTPELIER FAIR 69 33 26 S12G28 29.97F  
MORRISVILLE FAIR 70 36 28 SW10G21 29.90F  
ST. JOHNSBURY* N/A 71 43 36 MISG 29.90F  
LYNDONVILLE* FAIR 70 39 33 S9 29.93F  
MIDDLEBURY* FAIR 67 43 41 S15G23 29.93F  
RUTLAND* FAIR 72 40 31 SW9 29.98F  
SPRINGFIELD FAIR 73 45 36 S14 29.97F  
HIGHGATE* FAIR 70 45 40 S12G20 29.84F  
NEWPORT* FAIR 69 34 27 S17G28 29.88F  
 
_____LAKE CHAMPLAIN_____  
 
 
CITY SKY/WX TMP DP RH WIND PRES REMARKS
 
 

 
 
NYZ007-026>031-035-052-083-087-192000-  
_____NORTHERN NEW YORK_____  
 
 
CITY SKY/WX TMP DP RH WIND PRES REMARKS
 
PLATTSBURGH FAIR 71 46 40 S13 29.86F  
SARANAC LAKE FAIR 67 36 31 SW18G32 29.91F  
MASSENA FAIR 68 50 52 SW21G31 29.84F  
OGDENSBURG* FAIR 66 49 54 SW14G36 29.89R  
POTSDAM* SUNNY 66 48 52 SW31G38 29.88F  
WATERTOWN FAIR 68 48 48 SW18G33 29.93F  
FT DRUM SUNNY 68 45 42 SW21G28 29.93F  
ALBANY PTSUNNY 71 45 39 S12G21 30.01F  
GLENS FALLS FAIR 71 45 39 S14G21 29.97F  
 

 
NHZ002-005-011-192000-  
_____NEW HAMPSHIRE_____  
 
 
CITY SKY/WX TMP DP RH WIND PRES REMARKS
 
LEBANON FAIR 75 40 28 S16G28 29.96F  
KEENE FAIR 73 41 31 S16 30.02F  
MT WASHINGTON MOSUNNY 45 28 53 SW43G52 N/A  
PLYMOUTH FAIR 74 36 24 SW6 29.95F  
WHITEFIELD FAIR 73 35 25 SW9 29.94F  
 

 
 
_____REGIONAL QUEBEC LOCATIONS_____  
 
 
CITY SKY/WX TMP DP RH WIND PRES REMARKS
 
MONTREAL CLOUDY 68 46 45 SW23G32 29.80F  
QUEBEC CITY CLOUDY 64 43 45 SW18G26 29.75F  
SHERBROOKE SUNNY 72 37 28 S16G28 29.81F  
 
_____REGIONAL ONTARIO LOCATIONS_____  
 
 
CITY SKY/WX TMP DP RH WIND PRES REMARKS
 
OTTAWA PTSUNNY 68 52 56 SW18G32 29.82F  
 
______KEY______  
VSB - VISIBILITY IN MILES  
WCI - WIND CHILL INDEX  
HX - HEAT INDEX  

 
NNNN  
 
 
CLICK HERE TO GO TO PREVIOUS BULLETINS.

The Nexlab VT Page
The Nexlab NY Page Main Text Page